Air Resources Laboratory banner image
Air Resources Laboratory web site National Oceanic and Atmospheric Administration (NOAA)

me roundup


Office: GYX

ASUS41 KGYX 131805
RWRGYX
WEATHER ROUNDUP FOR MAINE AND NEW HAMPSHIRE
NATIONAL WEATHER SERVICE GRAY ME
100 PM EST WED DEC 13 2017

MEZ002-005-006-010-012-015-018-020-021-024-026-027-029-131900-
MAINE

CITY           SKY/WX    TMP DP  RH WIND       PRES   REMARKS
PORTLAND       PTSUNNY   27  21  78 SW12G18   29.12S WCI  17
6HR MIN TEMP:  25; 6HR MAX TEMP:  29;

SANFORD        SUNNY     24  12  60 W23G33    29.15R WCI   9
BAR HARBOR     FLURRIES  26  23  88 W6        29.04S
WISCASSET      CLOUDY    26  19  74 W9        29.10F
6HR MIN TEMP:  25; 6HR MAX TEMP:  27;

ROCKLAND       FLURRIES  26  18  71 W17       29.06F WCI  13
FRYEBURG       CLOUDY    23   7  50 W10G22    29.12R WCI  12
6HR MIN TEMP:  22; 6HR MAX TEMP:  26;

LEWISTONAUBURN CLOUDY    24  15  68 NW15G22   29.10S WCI  11
AUGUSTA        CLOUDY    23  12  62 W14G23    29.08S WCI  11
6HR MIN TEMP:  23; 6HR MAX TEMP:  25;

WATERVILLE     CLOUDY    23  13  65 W13G20    29.02S WCI  11
BANGOR         CLOUDY    24  18  77 W10       29.04R WCI  14
6HR MIN TEMP:  24; 6HR MAX TEMP:  30; 6HR PCP: TRACE;

GREENVILLE     NOT AVBL
MILLINOCKET    CLOUDY    23  16  74 W17G28    28.97S WCI   9
6HR MIN TEMP:  21; 6HR MAX TEMP:  25; 6HR PCP:  0.01;

HOULTON        CLOUDY    25  20  81 SW14      28.91R WCI  13
6HR MIN TEMP:  25; 6HR MAX TEMP:  36; 6HR PCP:  0.04;

PRESQUE ISLE   CLOUDY    26  23  88 W9        28.87S
FRENCHVILLE    LGT SNOW  27  26  96 SW7       28.78F FOG
6HR MIN TEMP:  27; 6HR MAX TEMP:  31; 6HR PCP:  0.09;

CARIBOU        CLOUDY    27  23  85 SW13      28.83R WCI  16
6HR MIN TEMP:  27; 6HR MAX TEMP:  35; 6HR PCP:  0.09;

$$

NHZ002-005-008-009-011-012-014-131900-
NEW HAMPSHIRE

CITY           SKY/WX    TMP DP  RH WIND       PRES   REMARKS
PORTSMOUTH     PTSUNNY   24  13  62 W16       29.18R WCI  10
ROCHESTER      FLURRIES  22  16  78 W13G18    29.17R WCI  10
6HR MIN TEMP:  22; 6HR MAX TEMP:  25;

NASHUA         CLOUDY    22  12  65 W14G23    29.28R WCI   9
MANCHESTER     PTSUNNY   21  11  65 W15G23    29.25R WCI   8
6HR MIN TEMP:  21; 6HR MAX TEMP:  22;

CONCORD        PTSUNNY   21   9  59 W17G24    29.23R WCI   7
6HR MIN TEMP:  21; 6HR MAX TEMP:  22; 6HR PCP: TRACE;

LACONIA        FLURRIES  22  12  65 W9G24     29.20R
PLYMOUTH       LGT SNOW  19  11  71 W12G21    29.21R WCI   7
BERLIN         LGT SNOW  14   7  73 NW12G18   29.13S VSB 1   WCI   0
6HR MIN TEMP:  13; 6HR MAX TEMP:  18; 6HR PCP: TRACE;

WHITEFIELD     LGT SNOW  13   8  81 NW7       29.19F VSB 3/4
6HR MIN TEMP:  12; 6HR MAX TEMP:  18; 6HR PCP: TRACE;

JAFFREY        CLOUDY    18   9  68 NW14G22   29.24R WCI   4
6HR MIN TEMP:  16; 6HR MAX TEMP:  18; 6HR PCP: TRACE;

KEENE          CLOUDY    20   9  62 W9G24     29.31R
LEBANON        CLOUDY    20   8  60 SW13G18   29.26S WCI   7
6HR MIN TEMP:  19; 6HR MAX TEMP:  21; 6HR PCP: TRACE;

MT WASHINGTON  SNOW      -9  -9 100 W56G71      N/A  VSB 1/16WCI -46
6HR MIN TEMP:  -9; 6HR MAX TEMP:   1; 6HR PCP:  0.04;

$$

VTZ005-007-008-131900-
VERMONT

CITY           SKY/WX    TMP DP  RH WIND       PRES   REMARKS
ST JOHNSBURY     N/A     14   8  77 MISG      29.23R
MONTPELIER     LGT SNOW  12   7  80 N10       29.25F WCI  -1
BURLINGTON     PTSUNNY   15   2  56 W21G30    29.35R WCI  -2
$$

MAZ007-012-024-CTZ003-RIZ002-NYZ038-NYZ072-131900-
SOUTHERN NEW ENGLAND AND NY

CITY           SKY/WX    TMP DP  RH WIND       PRES   REMARKS
BOSTON         PTSUNNY   24   7  48 W23G33    29.28R WCI   9
WORCESTER      CLOUDY    18   4  54 W29G43    29.24S WCI  -1
NANTUCKET      CLOUDY    26  12  55 W29G39    29.32R WCI  10
PROVIDENCE     PTSUNNY   25  11  55 W23G32    29.36R WCI  10
HARTFORD       PTSUNNY   22   9  57 W23G35    29.41R WCI   6
ALBANY         PTSUNNY   20   8  60 W23G37    29.46R WCI   3
NEW YORK CITY  MOSUNNY   30   7  37 W23G40    29.54F WCI  17
$$

ANZ081-ANZ082-ANZ150-NHZ014-MEZ023>029-131900-
COASTAL MARINE OBSERVATIONS

STATION/POSITION TIME  TEMP    WIND        PRES    WAVE
                       AIR SEA DIR/SP/G            HT/PER
                 (UTC) (F)     (DEG/KT/KT) (MB)    (FT/S)
MOUNT DESERT ROC 1800   30     280/ 19/ 22  982.8S
MATINICUS ROCK   1700   28     280/ 21/ 24  983.1F
ISLE OF SHOALS   1700   24     270/ 30/ 35  987.5S
JEFFREYS LEDGE   1736      48                N/A     7/ 6
GEORGES BANK BUO 1650   38 51               988.2   13/10
$$

.............KEY..............
   WCI - WIND CHILL
   TC  - TEMPERATURE IN CELSIUS
   VSB - VISIBILITY IN MILES
   HX  - HEAT INDEX
   FAIR- INDICATES FEW OR NO CLOUDS BELOW 12,000 FT, WITH NO
         SIGNIFICANT WEATHER AND/OR OBSTRUCTIONS TO VISIBILITY.




ASUS41 KGYX 131810
RWRGYX
WEATHER ROUNDUP FOR MAINE AND NEW HAMPSHIRE
NATIONAL WEATHER SERVICE GRAY ME
100 PM EST WED DEC 13 2017

MEZ002-005-006-010-012-015-018-020-021-024-026-027-029-131900-
MAINE

CITY           SKY/WX    TMP DP  RH WIND       PRES   REMARKS
PORTLAND       PTSUNNY   27  21  78 SW12G18   29.12S WCI  17
6HR MIN TEMP:  25; 6HR MAX TEMP:  29;

SANFORD        SUNNY     24  12  60 W23G33    29.15R WCI   9
BAR HARBOR     FLURRIES  26  23  88 W6        29.04S
WISCASSET      CLOUDY    26  19  74 W9        29.10F
6HR MIN TEMP:  25; 6HR MAX TEMP:  27;

ROCKLAND       FLURRIES  26  18  71 W17       29.06F WCI  13
FRYEBURG       CLOUDY    23   7  50 W10G22    29.12R WCI  12
6HR MIN TEMP:  22; 6HR MAX TEMP:  26;

LEWISTONAUBURN CLOUDY    24  15  68 NW15G22   29.10S WCI  11
AUGUSTA        CLOUDY    23  12  62 W14G23    29.08S WCI  11
6HR MIN TEMP:  23; 6HR MAX TEMP:  25;

WATERVILLE     CLOUDY    23  13  65 W13G20    29.02S WCI  11
BANGOR         CLOUDY    24  18  77 W10       29.04R WCI  14
6HR MIN TEMP:  24; 6HR MAX TEMP:  30; 6HR PCP: TRACE;

GREENVILLE     NOT AVBL
MILLINOCKET    CLOUDY    23  16  74 W17G28    28.97S WCI   9
6HR MIN TEMP:  21; 6HR MAX TEMP:  25; 6HR PCP:  0.01;

HOULTON        CLOUDY    25  20  81 SW14      28.91R WCI  13
6HR MIN TEMP:  25; 6HR MAX TEMP:  36; 6HR PCP:  0.04;

PRESQUE ISLE   CLOUDY    26  23  88 W9        28.87S
FRENCHVILLE    LGT SNOW  27  26  96 SW7       28.78F FOG
6HR MIN TEMP:  27; 6HR MAX TEMP:  31; 6HR PCP:  0.09;

CARIBOU        CLOUDY    27  23  85 SW13      28.83R WCI  16
6HR MIN TEMP:  27; 6HR MAX TEMP:  35; 6HR PCP:  0.09;

$$

NHZ002-005-008-009-011-012-014-131900-
NEW HAMPSHIRE

CITY           SKY/WX    TMP DP  RH WIND       PRES   REMARKS
PORTSMOUTH     PTSUNNY   24  13  62 W16       29.18R WCI  10
ROCHESTER      FLURRIES  22  16  78 W13G18    29.17R WCI  10
6HR MIN TEMP:  22; 6HR MAX TEMP:  25;

NASHUA         CLOUDY    22  12  65 W14G23    29.28R WCI   9
MANCHESTER     PTSUNNY   21  11  65 W15G23    29.25R WCI   8
6HR MIN TEMP:  21; 6HR MAX TEMP:  22;

CONCORD        PTSUNNY   21   9  59 W17G24    29.23R WCI   7
6HR MIN TEMP:  21; 6HR MAX TEMP:  22; 6HR PCP: TRACE;

LACONIA        FLURRIES  22  12  65 W9G24     29.20R
PLYMOUTH       LGT SNOW  19  11  71 W12G21    29.21R WCI   7
BERLIN         LGT SNOW  14   7  73 NW12G18   29.13S VSB 1   WCI   0
6HR MIN TEMP:  13; 6HR MAX TEMP:  18; 6HR PCP: TRACE;

WHITEFIELD     LGT SNOW  13   8  81 NW7       29.19F VSB 3/4
6HR MIN TEMP:  12; 6HR MAX TEMP:  18; 6HR PCP: TRACE;

JAFFREY        CLOUDY    18   9  68 NW14G22   29.24R WCI   4
6HR MIN TEMP:  16; 6HR MAX TEMP:  18; 6HR PCP: TRACE;

KEENE          CLOUDY    20   9  62 W9G24     29.31R
LEBANON        CLOUDY    20   8  60 SW13G18   29.26S WCI   7
6HR MIN TEMP:  19; 6HR MAX TEMP:  21; 6HR PCP: TRACE;

MT WASHINGTON  SNOW      -9  -9 100 W56G71      N/A  VSB 1/16WCI -46
6HR MIN TEMP:  -9; 6HR MAX TEMP:   1; 6HR PCP:  0.04;

$$

VTZ005-007-008-131900-
VERMONT

CITY           SKY/WX    TMP DP  RH WIND       PRES   REMARKS
ST JOHNSBURY     N/A     14   8  77 MISG      29.23R
MONTPELIER     LGT SNOW  12   7  80 N10       29.25F WCI  -1
BURLINGTON     PTSUNNY   15   2  56 W21G30    29.35R WCI  -2
$$

MAZ007-012-024-CTZ003-RIZ002-NYZ038-NYZ072-131900-
SOUTHERN NEW ENGLAND AND NY

CITY           SKY/WX    TMP DP  RH WIND       PRES   REMARKS
BOSTON         PTSUNNY   24   7  48 W23G33    29.28R WCI   9
WORCESTER      CLOUDY    18   4  54 W29G43    29.24S WCI  -1
NANTUCKET      CLOUDY    26  12  55 W29G39    29.32R WCI  10
PROVIDENCE     PTSUNNY   25  11  55 W23G32    29.36R WCI  10
HARTFORD       PTSUNNY   22   9  57 W23G35    29.41R WCI   6
ALBANY         PTSUNNY   20   8  60 W23G37    29.46R WCI   3
NEW YORK CITY  MOSUNNY   30   7  37 W23G40    29.54F WCI  17
$$

ANZ081-ANZ082-ANZ150-NHZ014-MEZ023>029-131900-
COASTAL MARINE OBSERVATIONS

STATION/POSITION TIME  TEMP    WIND        PRES    WAVE
                       AIR SEA DIR/SP/G            HT/PER
                 (UTC) (F)     (DEG/KT/KT) (MB)    (FT/S)
MOUNT DESERT ROC 1800   30     280/ 19/ 22  982.8S
MATINICUS ROCK   1700   28     280/ 21/ 24  983.1F
ISLE OF SHOALS   1700   24     270/ 30/ 35  987.5S
JEFFREYS LEDGE   1736      48                N/A     7/ 6
GEORGES BANK BUO 1650   38 51               988.2   13/10
$$

.............KEY..............
   WCI - WIND CHILL
   TC  - TEMPERATURE IN CELSIUS
   VSB - VISIBILITY IN MILES
   HX  - HEAT INDEX
   FAIR- INDICATES FEW OR NO CLOUDS BELOW 12,000 FT, WITH NO
         SIGNIFICANT WEATHER AND/OR OBSTRUCTIONS TO VISIBILITY.






Office: BOX ASUS41 KBOX 131810 RWRBOX REGIONAL WEATHER ROUNDUP NATIONAL WEATHER SERVICE TAUNTON MA 100 PM EST WED DEC 13 2017 NOTE: "FAIR" INDICATES FEW OR NO CLOUDS BELOW 12,000 FEET WITH NO SIGNIFICANT WEATHER AND/OR OBSTRUCTIONS TO VISIBILITY. MAZALL-131900- EASTERN MASSACHUSETTS CITY SKY/WX TMP DP RH WIND PRES REMARKS BOSTON PTSUNNY 24 7 48 W23G33 29.28R WCI 9 6HR MIN TEMP: 22; 6HR MAX TEMP: 25; BEVERLY CLOUDY 25 10 53 W22G29 29.25R WCI 10 LAWRENCE CLOUDY 24 11 57 W20G29 29.27R WCI 10 BEDFORD CLOUDY 21 7 54 W22G36 29.27S WCI 5 BLUE HILL N/A 21 7 54 W30G36 29.24R WCI 3 NORWOOD CLOUDY 25 9 50 W21G37 29.31R WCI 11 MARSHFIELD MOSUNNY 27 7 43 W17G32 29.27R WCI 14 PLYMOUTH SUNNY 26 6 42 W29G39 29.30R WCI 10 TAUNTON MOSUNNY 25 6 44 W23G31 29.32S WCI 10 NEW BEDFORD PTSUNNY 23 8 52 W18G37 29.33R WCI 9 $$ MAZALL-131900- CAPE COD AND THE ISLANDS CITY SKY/WX TMP DP RH WIND PRES REMARKS FALMOUTH MOSUNNY 21 5 49 W30G41 29.31R WCI 3 HYANNIS MOSUNNY 26 7 44 W26G40 29.27R WCI 10 CHATHAM MOSUNNY 28 11 48 W10G23 29.28S WCI 19 PROVINCETOWN CLOUDY 26 12 55 W30G37 29.26S WCI 10 NANTUCKET CLOUDY 26 12 55 W29G39 29.32R WCI 10 MARTHAS VNYRD CLOUDY 25 10 53 W15G37 29.34R WCI 13 $$ MAZALL-131900- CENTRAL AND WESTERN MASSACHUSETTS CITY SKY/WX TMP DP RH WIND PRES REMARKS WORCESTER CLOUDY 18 4 54 W29G43 29.24S WCI -1 6HR MIN TEMP: 14; 6HR MAX TEMP: 18; 6HR PCP: TRACE; FITCHBURG CLOUDY 22 10 60 W21G31 29.29S WCI 6 ORANGE NOT AVBL SPRINGFIELD PTSUNNY 21 6 53 NW24G38 29.38R WCI 4 WESTFIELD CLOUDY 21 8 57 W10G33 29.38S WCI 10 NORTH ADAMS LGT SNOW 16 7 67 W17G26 29.40R WCI 0 PITTSFIELD LGT SNOW 16 7 67 W15G30 29.36R WCI 1 $$ RIZALL-131900- RHODE ISLAND CITY SKY/WX TMP DP RH WIND PRES REMARKS PROVIDENCE PTSUNNY 25 11 55 W23G32 29.36R WCI 10 6HR MIN TEMP: 20; 6HR MAX TEMP: 25; NEWPORT MOSUNNY 24 8 50 W16G30 29.35R WCI 11 BLOCK ISLAND CLOUDY 25 8 48 W24G38 29.40R WCI 9 SMITHFIELD PTSUNNY 22 9 57 NW16G31 29.31R WCI 8 WESTERLY CLOUDY 26 5 40 W15G29 29.42R WCI 14 $$ CTZALL-131900- CONNECTICUT CITY SKY/WX TMP DP RH WIND PRES REMARKS BRADLEY INTL PTSUNNY 22 9 57 W23G35 29.41R WCI 6 6HR MIN TEMP: 18; 6HR MAX TEMP: 23; HARTFORD CLOUDY 24 7 48 W12 29.44R WCI 13 BRIDGEPORT CLOUDY 26 6 42 W20G32 29.49R WCI 12 DANBURY CLOUDY 24 5 44 W18G31 29.49R WCI 10 GROTON CLOUDY 25 5 42 W22G33 29.43R WCI 10 NEW HAVEN PTSUNNY 27 8 44 W16G31 29.48R WCI 15 CHESTER FAIR 23 5 46 W12G25 29.42R WCI 12 MERIDEN CLOUDY 23 9 55 W12G31 29.45S WCI 12 WILLIMANTIC CLOUDY 23 9 55 W9G24 29.41R WCI 13 OXFORD PTSUNNY 20 9 62 W17G30 29.43R WCI 5 $$ MEZ002-015-021-024-NHZ003-005-008-011-012-014-VTZ005-008-131900- NORTHERN NEW ENGLAND CITY SKY/WX TMP DP RH WIND PRES REMARKS PORTLAND ME PTSUNNY 27 21 78 SW12G18 29.12S WCI 17 6HR MIN TEMP: 25; 6HR MAX TEMP: 29; BANGOR ME CLOUDY 24 18 77 W10 29.04R WCI 14 CONCORD NH PTSUNNY 21 9 59 W17G24 29.23R WCI 7 MANCHESTER NH PTSUNNY 21 11 65 W15G23 29.25R WCI 8 NASHUA NH CLOUDY 22 12 65 W14G23 29.28R WCI 9 PORTSMOUTH NH PTSUNNY 24 13 62 W16 29.18R WCI 10 JAFFREY NH CLOUDY 18 9 68 NW14G22 29.24R WCI 4 KEENE NH CLOUDY 20 9 62 W9G24 29.31R WCI 9 BURLINGTON VT PTSUNNY 15 2 56 W21G30 29.35R WCI -2 MT. WASHINGTON SNOW -9 -9 100 W56G71 N/A VSB 1/16WCI -46 $$ NYZ052-076-131900- EASTERN NEW YORK CITY SKY/WX TMP DP RH WIND PRES REMARKS ALBANY PTSUNNY 20 8 60 W23G37 29.46R WCI 3 6HR MIN TEMP: 16; 6HR MAX TEMP: 20; 6HR PCP: TRACE; NEW YORK CITY MOSUNNY 30 7 37 W23G40 29.54F WCI 17 6HR MIN TEMP: 22; 6HR MAX TEMP: 31; $$ ANZALL-131900- MARINE OBSERVATIONS STATION/POSITION TIME TEMP WIND PRES VSBY WAVE AIR SEA DIR/SP/G HT/PER (UTC) (F) (DEG/KT/KT) (MB) (MI) (FT/S) BOSTON BUOY 1750 27 48 260/ 27/ 35 989.6R 5/ 5 BUZZARDS BAY 1700 24 290/ 32/ 40 993.8F NANTUCKET SOUND 1750 26 44 270/ 29/ 35 991.6S 5/ 5 MASS BAY-STELLWA 1704 26 47 290/ 27/ 33 989.1F 5/ 5 ISLE OF SHOALS 1700 24 270/ 30/ 35 987.5S S OF BLOCK IS 1743 53 N/A 11/ 8 $$ ......................KEY......................... SKY/WX - SKY CONDITION/PRESENT WEATHER TMP - TEMPERATURE IN FAHRENHEIT DWPT - DEWPOINT IN FAHRENHEIT RH - RELATIVE HUMIDITY IN PERCENT WIND - DIRECTION AND SPEED IN MPH PRES - MEAN SEA LEVEL PRESSURE IN INCHES OF HG WCI - WIND CHILL INDEX VSB - VISIBILITY IN MILES HX - HEAT INDEX TC - TEMPERATURE IN CELSIUS VRB - VARIABLE WIND DIRECTION N/A - NOT AVAILABLE